Theta_e
328 328 328 329 327 325 327 327 325 326 331 331 323 323 326 322 329 339 340 344 348 346 348 349 347 349 350 350 351 351 352 353 352 352 351 351 355 358 358 355 354 353 352 353 354 352 351 350 349 347 347 347 347 347 348 348 347 340 333 331 333 334 334
325 326 327 329 327 325 325 322 322 326 329 331 327 326 325 322 330 340 341 342 344 344 347 348 347 348 349 347 348 348 349 351 350 350 350 351 353 355 356 354 353 353 352 353 353 353 353 351 350 348 348 350 348 347 348 349 350 347 338 331 331 334 334
324 325 325 326 326 324 324 322 324 326 323 326 329 327 323 322 330 341 343 342 342 342 345 347 347 348 347 346 346 345 346 347 347 349 350 351 351 352 354 354 353 352 351 352 353 354 355 353 352 348 348 352 352 350 350 349 349 350 345 336 331 333 334
323 323 323 323 323 324 325 323 325 326 323 323 326 325 323 323 331 342 345 344 346 346 347 347 347 347 346 345 345 344 344 344 345 347 348 350 350 350 352 352 353 353 352 353 353 353 354 355 353 351 351 352 353 352 352 352 352 352 352 346 337 335 337
322 320 321 322 322 323 324 322 322 323 323 323 324 325 322 321 332 341 342 342 346 346 347 349 348 345 344 343 343 342 343 344 344 345 345 347 348 349 349 351 353 353 353 353 353 353 353 353 353 353 353 353 353 353 353 355 356 355 355 354 348 343 343
318 320 322 322 323 324 322 322 323 323 323 323 323 325 323 323 332 337 339 343 346 345 345 348 346 343 342 342 342 342 342 342 342 342 343 344 346 347 348 350 351 353 354 354 354 354 352 352 354 355 355 355 354 353 354 357 360 360 358 358 357 353 350
319 321 322 322 323 324 323 323 324 324 325 324 321 322 326 332 336 336 339 344 346 345 344 345 344 342 341 341 341 341 341 342 341 341 341 342 344 346 347 348 350 351 354 354 354 354 354 353 354 355 355 354 354 353 355 357 359 360 359 358 359 359 357
322 321 325 324 323 323 322 323 324 324 324 323 324 325 330 336 336 337 342 345 346 344 342 342 341 341 340 340 340 340 340 341 340 339 340 340 342 345 346 346 348 350 352 353 354 354 354 354 354 354 354 354 354 353 354 355 355 357 357 357 359 359 357
322 322 325 325 324 323 321 323 324 325 324 325 328 328 332 337 336 335 341 344 345 343 340 339 340 341 341 340 340 339 339 340 339 339 339 338 339 343 344 344 345 348 349 350 352 353 353 353 353 354 354 353 353 353 353 354 354 355 356 357 359 359 356
322 324 326 325 324 323 321 322 323 324 324 324 327 329 331 338 340 337 338 340 342 342 340 340 340 340 339 338 339 339 339 339 339 339 339 338 338 339 340 341 342 344 346 347 348 349 349 350 351 352 353 352 352 351 352 354 354 354 355 356 358 357 357
324 328 330 328 325 321 318 320 321 323 323 323 328 330 329 336 341 338 337 339 339 339 339 340 339 336 336 336 337 338 339 339 339 339 338 338 338 337 337 338 340 341 344 345 346 346 346 347 348 350 351 353 353 352 352 351 352 353 353 354 355 355 355
325 326 325 323 322 320 318 320 320 322 323 322 325 326 328 335 341 339 339 339 337 336 338 338 337 335 336 335 335 337 337 338 338 338 337 337 337 337 336 336 337 338 339 340 343 345 345 345 346 348 350 351 352 352 352 352 351 352 351 352 352 352 353
324 323 321 321 321 320 319 320 320 320 322 322 322 322 327 337 340 339 342 340 336 336 336 336 335 335 335 334 335 336 336 337 337 336 336 336 336 336 336 336 336 336 335 334 337 341 344 344 345 346 347 348 349 350 351 352 352 352 352 352 352 352 352
322 321 321 320 319 319 319 320 320 319 320 321 320 323 330 338 339 339 342 340 338 338 336 335 335 334 334 334 334 334 335 335 336 335 335 335 335 335 336 336 336 336 336 334 333 335 339 343 345 345 345 346 348 348 348 349 350 351 352 352 353 352 352
321 319 321 320 319 320 318 318 320 320 319 320 320 324 331 337 338 338 338 338 339 339 335 333 334 333 334 334 334 334 334 334 334 335 334 335 335 335 335 336 335 335 335 335 334 333 334 337 341 343 344 344 345 346 347 347 348 350 351 351 352 352 352
321 319 319 319 319 319 317 317 319 319 318 319 320 323 328 333 336 336 336 337 337 336 333 333 334 333 333 333 333 332 333 334 334 333 333 334 335 335 335 335 335 335 335 335 335 334 333 333 335 337 340 342 343 343 344 344 346 348 349 350 351 352 352
320 318 318 318 317 317 317 318 319 319 319 320 319 320 325 330 334 335 335 337 336 334 333 333 333 333 333 333 332 332 332 333 333 333 333 332 333 334 333 333 333 333 334 335 335 335 333 332 333 334 334 335 339 342 343 341 341 343 346 348 349 350 351
320 319 318 318 316 316 318 320 319 319 319 319 319 320 324 329 333 334 335 335 335 334 333 332 333 333 333 332 332 332 332 332 332 332 332 332 331 332 331 330 330 329 331 333 335 335 332 329 330 334 333 330 331 336 341 341 338 337 338 342 345 347 348
321 322 320 318 317 318 321 320 320 320 319 319 319 321 325 330 333 334 334 334 335 333 332 332 332 333 333 332 331 330 330 331 331 331 331 330 330 330 329 328 327 326 326 329 331 333 331 326 326 332 334 332 328 328 331 334 333 331 331 332 336 340 343
321 323 321 319 319 320 320 320 321 322 322 323 324 325 327 330 332 332 334 334 332 331 331 332 332 332 332 331 331 330 329 329 330 329 329 328 327 329 329 327 326 325 325 327 328 329 329 326 326 331 334 333 331 328 325 326 326 324 324 323 325 329 334
321 321 320 322 322 320 321 322 320 321 323 324 328 328 327 329 331 331 333 333 330 329 330 331 331 331 331 331 330 330 329 328 327 327 326 325 324 325 326 326 325 323 322 324 326 327 327 326 326 331 333 332 332 330 327 327 327 324 321 320 320 321 324
322 320 319 321 321 321 323 324 320 321 320 319 325 329 327 327 330 330 331 331 329 328 328 329 328 329 331 333 331 329 328 326 326 325 323 322 321 321 322 323 323 322 320 320 322 324 325 323 324 327 330 331 331 330 328 329 331 328 323 320 319 318 319
324 321 318 319 322 326 330 326 321 320 319 317 323 326 323 325 328 329 330 329 327 327 326 325 326 328 331 331 329 327 327 325 324 323 322 321 320 319 320 321 320 320 318 317 320 322 322 321 321 325 328 329 329 328 327 328 330 329 326 322 319 318 317
324 323 319 320 325 329 330 325 319 318 318 319 321 320 320 325 326 327 329 328 325 325 324 323 325 328 329 328 325 323 324 323 322 322 321 320 320 320 320 320 319 318 317 317 319 321 321 320 321 324 326 326 327 327 326 327 327 327 328 326 322 319 318
321 320 319 321 325 327 325 322 318 315 316 320 321 321 323 326 325 325 326 325 323 323 323 323 325 325 324 322 321 320 321 320 320 320 319 319 319 319 319 318 318 318 316 316 318 320 321 321 321 322 323 323 324 324 325 325 324 325 330 330 325 321 318
318 319 318 321 327 328 322 319 317 316 321 325 326 326 325 323 323 324 324 323 322 322 322 322 322 321 320 319 319 319 318 318 318 318 319 319 318 318 317 318 319 319 317 315 316 317 318 319 319 320 321 322 322 321 322 323 322 324 331 332 327 323 322
318 317 316 320 329 328 321 321 324 326 329 330 327 324 323 322 323 324 323 323 322 321 321 321 319 319 319 318 318 318 318 317 318 318 318 318 318 317 317 318 319 319 317 316 315 313 313 313 313 314 316 318 319 320 321 323 323 325 330 330 326 325 328
320 319 319 322 327 325 320 323 328 328 327 327 323 322 322 322 321 321 321 321 321 320 320 320 319 318 318 317 318 318 317 317 318 318 318 318 317 317 317 318 318 316 315 315 315 314 313 311 309 310 310 312 315 318 321 323 323 324 326 326 325 328 331
325 324 325 326 324 322 322 323 325 325 324 323 323 323 322 321 321 321 321 320 320 319 319 318 318 317 316 317 317 317 316 317 318 317 318 318 318 318 318 316 314 313 313 314 316 316 316 313 310 310 310 310 312 315 318 320 322 323 323 323 325 329 330
326 323 323 323 322 322 323 323 323 323 322 322 323 322 321 321 321 321 320 320 320 319 318 318 317 316 316 317 317 316 317 317 317 317 318 318 318 318 317 315 314 313 314 316 317 318 317 315 313 311 311 310 310 311 312 314 317 319 321 322 324 326 325
326 323 323 324 323 323 323 322 323 323 322 321 321 320 319 320 320 320 321 321 320 319 319 318 317 316 316 317 316 316 317 317 316 317 317 317 317 317 316 316 316 315 315 317 317 317 316 316 315 314 314 313 313 313 314 314 313 314 317 320 322 322 323
324 324 324 322 321 321 322 322 323 323 321 320 318 317 318 318 319 319 320 320 320 320 319 317 317 316 316 316 316 317 317 316 317 318 317 317 317 316 315 316 316 317 316 316 316 316 316 316 316 316 316 316 317 317 317 317 316 314 314 317 321 322 323
323 324 323 321 321 322 321 320 321 322 321 320 318 317 317 317 318 319 318 319 319 318 317 317 316 316 316 316 317 317 317 317 317 317 317 317 316 316 315 316 316 316 315 314 314 315 316 317 316 317 317 317 317 317 317 317 318 317 315 317 320 322 323
325 325 324 324 325 324 321 320 320 320 320 320 319 318 318 317 317 318 317 318 318 317 317 316 316 317 317 317 316 317 317 317 317 316 317 317 316 315 315 315 314 314 314 315 315 316 317 317 316 316 316 316 317 317 317 318 318 318 317 317 319 321 322
325 323 322 322 323 323 322 321 320 320 320 320 319 319 319 318 318 317 317 317 317 317 316 316 317 317 317 317 317 317 317 316 316 316 316 316 315 315 315 314 313 313 314 315 315 315 315 315 314 313 314 316 316 317 317 318 317 318 318 318 318 320 322
324 323 322 322 322 322 322 321 321 320 320 319 319 319 319 319 318 318 318 318 317 317 316 316 316 316 316 316 316 316 316 315 315 315 315 315 315 314 314 313 313 314 315 315 315 314 314 314 314 314 315 317 318 317 318 318 317 317 318 318 318 319 320
323 323 322 321 321 321 321 320 320 320 320 320 319 319 319 319 319 319 319 318 318 317 317 316 316 316 316 316 315 315 315 315 314 314 314 314 314 313 313 314 314 314 314 314 314 313 313 314 316 317 318 318 319 319 318 318 317 317 317 318 318 318 319
Wind_Speed
8 6 3 5 3 2 4 3 0 3 4 3 2 2 5 5 4 1 1 5 6 5 5 5 3 6 6 11 15 14 13 13 13 11 7 7 9 12 15 16 19 21 21 19 18 22 28 27 25 28 29 29 30 28 25 23 21 23 26 24 23 22 21
6 4 4 7 2 3 1 2 3 5 4 2 1 1 2 1 4 1 4 12 11 6 4 6 8 8 8 9 12 12 14 17 17 15 11 4 5 9 10 10 12 15 19 23 22 20 24 28 28 28 27 27 31 30 26 24 22 21 24 25 24 23 22
3 3 0 4 6 4 3 3 4 2 1 2 0 2 2 1 5 3 1 6 7 3 4 10 12 10 10 11 10 10 13 17 16 16 17 15 10 8 6 5 8 12 14 19 22 20 19 23 28 29 23 21 28 31 28 26 23 19 21 24 25 23 22
2 2 2 0 4 4 3 4 4 1 2 2 1 2 3 1 5 5 2 2 1 1 0 7 12 11 10 11 10 10 14 17 18 18 18 18 18 15 11 7 2 9 12 13 17 18 16 17 24 27 23 20 25 30 30 28 25 21 20 22 24 24 23
3 1 1 3 3 1 1 2 3 2 2 2 2 2 4 3 4 6 5 1 1 1 2 1 7 9 10 11 10 12 16 18 20 20 18 16 17 18 16 13 9 2 8 12 13 12 13 16 19 21 21 20 22 26 29 29 28 25 23 22 23 23 23
3 3 4 5 4 2 1 1 3 4 4 2 2 4 3 1 4 5 7 5 1 1 2 0 2 7 12 15 16 16 18 21 20 20 19 16 15 16 15 15 16 12 5 7 9 9 13 16 15 14 16 18 18 20 25 29 28 27 26 23 22 21 21
5 7 8 6 2 2 3 2 3 4 2 2 2 1 1 4 6 5 5 6 2 1 1 1 3 6 17 19 20 19 19 21 21 20 20 17 15 16 16 17 19 18 13 6 6 9 12 14 14 12 13 17 21 20 22 24 24 24 25 22 21 22 21
3 3 3 3 2 3 3 3 3 2 2 4 4 3 3 4 5 6 5 4 3 2 4 3 2 7 21 22 19 21 21 21 22 22 21 18 16 16 18 20 20 19 17 13 9 8 8 9 11 11 11 17 22 23 22 22 20 20 20 19 21 23 21
4 5 5 5 5 4 2 4 3 2 5 6 4 1 3 4 3 7 6 3 3 5 8 6 5 6 16 22 22 22 21 21 22 23 22 20 18 16 17 21 23 22 20 18 15 10 7 6 7 8 10 15 18 19 20 18 18 18 18 18 21 22 21
3 2 0 2 4 2 2 5 4 3 9 10 5 3 5 3 1 4 7 6 4 7 9 8 7 7 12 20 23 23 22 22 23 24 22 19 19 19 17 19 22 23 23 22 20 16 12 10 9 8 7 9 11 12 15 14 14 16 17 19 21 21 20
1 3 3 3 4 1 1 6 4 5 11 9 4 4 4 4 3 3 7 13 12 11 11 8 7 9 11 15 20 22 23 23 23 25 23 19 19 20 19 20 21 21 21 21 19 18 17 16 13 12 10 6 4 6 10 11 13 14 15 18 19 20 21
3 3 4 7 5 5 7 8 5 4 7 7 5 5 6 7 6 4 6 15 16 13 15 13 10 9 10 12 17 20 23 23 24 25 24 21 20 19 20 21 22 21 21 19 18 17 18 19 17 15 14 11 9 9 7 8 11 12 13 14 15 16 18
5 3 5 7 6 8 9 8 5 5 5 6 4 4 6 7 8 7 8 12 14 12 14 14 11 11 13 16 20 22 23 24 24 25 24 21 19 19 19 21 21 21 22 21 19 17 16 17 17 19 19 17 14 13 11 7 9 9 9 10 9 10 12
5 2 3 5 7 7 7 6 7 8 8 6 4 3 7 9 11 13 12 12 10 8 10 12 13 19 21 21 21 21 22 23 23 24 23 21 19 18 18 19 19 19 21 21 21 19 16 15 15 17 19 19 17 17 15 10 8 9 8 7 7 7 9
6 5 3 3 4 4 5 6 6 6 6 6 5 5 8 9 11 12 13 14 8 5 12 16 18 24 24 19 17 18 21 24 24 24 22 20 19 18 16 17 17 17 19 20 21 21 19 16 14 15 16 16 16 17 17 14 10 9 7 7 7 7 7
4 6 4 3 3 3 4 5 4 3 2 3 4 4 4 6 11 13 12 10 6 7 14 17 18 21 21 18 20 21 21 24 24 23 21 19 18 17 15 15 15 15 16 18 19 19 18 17 16 15 15 16 16 18 18 14 10 7 6 5 5 6 6
2 6 7 4 2 2 4 2 3 3 1 2 3 1 3 7 10 10 8 7 9 12 14 14 13 16 17 17 19 22 23 25 25 22 19 17 16 16 14 13 14 14 15 17 17 15 14 16 17 16 15 15 16 17 18 16 11 7 6 6 5 4 4
2 6 6 2 1 3 3 1 4 5 3 3 1 2 4 9 7 7 8 9 11 13 13 13 13 15 17 18 19 20 20 20 21 21 19 16 14 14 12 11 13 14 14 16 16 14 13 14 15 15 15 15 15 15 15 16 14 9 7 6 5 4 2
2 6 3 2 1 4 1 5 7 6 1 6 4 2 6 10 12 13 13 11 12 14 15 17 19 21 22 21 21 19 16 16 19 21 20 17 15 13 11 11 12 14 15 16 15 13 12 13 14 16 15 14 14 14 14 13 14 12 10 9 7 5 3
1 4 2 3 3 1 4 6 5 6 5 3 5 5 8 8 13 15 13 11 12 15 19 22 24 26 25 22 21 19 14 14 20 22 21 18 16 14 12 11 12 13 14 15 14 11 11 13 15 15 15 13 13 14 14 13 13 13 13 13 11 10 7
2 1 1 0 1 1 2 2 1 2 5 5 6 5 5 7 11 12 11 10 11 15 22 25 25 26 23 17 16 20 15 15 20 21 19 18 16 15 15 14 13 11 12 14 13 9 8 11 15 14 11 10 11 12 14 15 14 13 13 14 14 14 12
2 1 1 1 2 1 2 0 2 6 12 12 8 6 3 4 11 14 10 9 13 16 19 22 23 22 16 7 9 20 20 16 18 18 16 17 16 14 12 12 11 8 8 11 12 9 7 9 13 13 8 6 9 10 12 14 15 14 13 13 13 14 13
3 1 1 0 1 2 4 2 6 12 17 14 10 7 1 2 12 19 12 9 15 19 18 18 18 14 7 1 6 18 20 17 18 18 17 16 13 9 6 6 6 6 7 8 8 6 7 9 11 11 6 4 6 9 11 11 11 13 15 13 12 12 12
3 2 1 0 1 2 3 3 9 12 13 10 9 6 4 5 9 19 16 14 20 22 20 16 11 7 6 7 12 18 19 16 16 15 14 13 10 7 5 4 4 5 5 4 3 4 6 7 7 6 4 4 6 8 9 8 8 11 13 14 14 13 11
3 2 1 0 1 1 0 7 10 9 8 7 6 4 5 5 9 14 19 24 25 23 22 19 14 13 15 16 17 18 17 14 13 12 11 11 9 6 5 4 4 3 2 3 2 4 4 2 2 2 2 3 5 6 6 7 9 9 9 11 13 14 13
2 2 2 1 1 1 3 10 12 9 4 2 3 3 6 15 19 21 25 27 26 24 25 24 21 20 19 17 17 17 15 14 11 9 9 8 6 5 5 3 1 1 3 5 5 4 4 4 4 5 6 6 6 6 7 8 8 8 7 8 11 13 14
2 2 1 1 1 1 5 8 7 7 3 4 5 10 16 19 21 23 24 22 21 24 26 23 20 19 17 15 15 14 13 12 10 8 8 7 5 5 5 2 1 1 2 4 5 6 7 8 8 8 8 8 7 6 6 6 5 4 4 6 9 10 9
1 1 1 3 2 4 10 9 5 5 8 9 12 15 16 16 16 18 20 19 18 20 21 19 16 14 12 12 12 12 11 10 10 10 9 8 7 6 4 2 2 3 3 3 3 4 6 8 9 9 9 8 7 6 5 5 4 3 4 5 7 7 7
0 2 2 2 1 11 17 16 14 14 12 11 13 13 11 10 10 12 14 15 15 16 18 18 15 12 10 10 11 10 10 9 9 8 7 6 7 6 3 3 5 5 4 3 3 3 5 7 8 8 9 9 8 8 9 9 8 7 6 6 4 5 9
1 4 7 7 6 13 20 20 17 15 13 12 13 11 9 9 9 10 12 12 10 12 14 13 11 9 9 9 9 9 9 8 6 5 4 4 3 2 1 4 5 5 4 3 3 4 5 7 7 8 8 9 10 11 11 11 11 10 10 8 7 8 10
2 2 4 7 9 14 20 21 17 14 13 12 9 9 11 11 10 10 12 13 11 11 10 9 9 9 8 7 7 8 8 5 3 4 4 3 2 2 2 3 4 4 4 4 4 5 7 7 8 8 9 10 11 11 12 12 12 11 11 10 10 9 8
1 1 2 7 10 13 17 19 18 17 15 12 9 9 11 12 11 10 11 12 12 12 10 10 10 9 7 6 6 6 6 5 5 4 3 3 4 4 4 4 3 3 4 6 7 7 7 8 8 8 9 10 11 12 12 13 13 12 10 9 8 8 7
1 1 3 6 6 8 7 9 13 17 18 16 12 11 10 9 10 10 11 12 11 10 11 13 13 12 9 8 6 6 6 5 4 3 3 4 4 4 4 3 3 4 6 7 8 8 8 8 8 7 6 7 8 10 12 13 13 14 12 9 8 8 8
1 0 4 6 2 5 6 9 8 10 11 11 11 13 15 14 12 13 14 16 14 11 12 15 15 15 13 10 8 7 6 4 3 4 4 3 4 4 5 6 7 7 6 7 7 7 7 9 10 9 8 7 6 7 9 11 12 13 13 12 9 7 7
1 3 5 5 4 5 7 7 5 5 5 4 4 7 11 14 16 16 15 17 17 15 14 15 15 15 15 13 11 9 6 5 5 5 4 5 5 6 7 8 8 6 5 5 6 8 11 12 12 11 10 8 6 7 8 9 11 11 13 14 12 9 9
3 5 6 5 3 3 5 4 2 1 1 1 1 0 3 8 14 17 16 19 22 21 18 18 17 14 13 13 11 9 8 9 8 6 5 6 8 8 9 8 6 4 5 7 9 12 13 12 10 8 7 7 8 8 8 9 11 11 11 12 13 12 11
2 1 2 4 3 4 5 3 3 5 6 7 8 7 5 5 8 11 12 15 20 21 19 19 17 15 14 13 11 10 10 10 8 6 6 8 9 8 7 5 4 5 8 10 12 14 13 9 7 6 6 6 7 7 7 9 10 10 10 11 12 13 13
Wind_Direction
185 193 198 219 182 141 242 265 284 262 240 185 204 235 213 193 140 85 138 105 97 90 46 318 214 128 126 131 126 129 130 114 100 104 132 174 193 200 204 206 204 201 197 189 181 182 189 193 191 187 191 202 209 214 218 220 216 211 210 209 204 204 204
184 203 242 248 229 87 131 283 321 320 324 329 103 125 259 197 110 150 164 139 146 146 132 205 197 146 139 137 123 127 123 102 87 80 77 93 171 172 180 195 197 196 201 203 196 188 191 197 198 193 189 195 205 214 220 220 218 213 211 211 208 207 208
156 151 201 294 315 357 35 331 316 333 1 318 19 125 239 166 112 111 93 135 152 137 141 167 162 145 140 128 111 103 93 84 78 67 57 56 72 104 132 171 192 190 197 208 207 203 201 201 203 204 197 192 199 209 216 218 220 219 214 212 210 209 210
170 122 90 352 307 340 17 324 307 201 166 228 222 178 208 156 121 131 84 338 267 356 61 157 148 145 135 119 111 97 83 75 71 65 56 55 63 66 63 64 158 196 197 202 206 213 216 205 203 208 206 200 200 204 210 213 214 217 213 211 211 211 212
186 146 150 199 227 189 171 258 272 249 234 262 285 251 213 171 129 139 133 123 241 95 24 118 136 135 124 115 109 95 87 80 72 67 60 52 58 62 57 56 59 111 192 195 196 205 212 206 207 213 213 213 208 203 207 208 205 207 208 207 209 210 212
180 188 198 206 231 242 216 214 227 238 230 214 278 293 261 150 101 137 140 118 60 79 106 177 167 132 117 110 106 100 95 89 78 70 65 54 52 61 65 69 66 63 104 179 181 179 193 201 206 212 216 222 217 204 206 206 200 199 200 202 207 209 210
174 190 188 179 227 333 356 309 250 268 268 125 92 323 325 38 65 94 106 101 100 266 93 355 285 127 116 111 109 108 103 95 87 77 71 63 56 62 72 77 76 72 77 100 149 164 181 192 196 201 209 219 218 208 206 206 201 200 199 201 209 212 212
126 144 161 138 56 22 353 264 240 315 10 91 107 161 147 91 99 102 76 88 135 150 89 62 289 133 120 116 112 108 104 99 93 84 76 69 66 71 73 73 79 85 85 81 94 134 165 182 188 192 199 212 216 212 210 209 208 210 207 206 214 217 217
48 37 12 3 352 357 335 272 258 57 47 55 61 83 78 68 121 128 117 104 119 143 140 145 207 170 123 118 116 111 107 102 95 87 78 72 71 76 75 71 76 86 88 81 80 98 125 143 161 179 198 211 215 210 208 210 211 211 209 210 217 222 224
50 77 115 302 292 282 281 277 273 69 57 50 59 77 67 62 67 112 123 121 121 152 147 140 164 158 121 115 116 113 111 109 103 95 87 78 72 73 72 71 74 81 85 83 81 85 92 102 116 129 166 206 211 202 202 208 211 211 210 212 216 221 225
357 194 208 280 276 250 299 285 291 54 56 54 71 83 81 116 103 66 128 136 142 154 142 134 154 139 113 111 114 114 112 111 108 101 96 89 80 74 70 70 73 77 80 84 88 87 81 79 85 97 109 126 136 161 186 201 211 214 215 216 219 223 226
265 270 350 337 337 9 340 308 310 40 66 61 30 46 99 129 110 78 138 140 142 152 148 150 158 135 116 113 112 114 115 113 110 105 99 94 88 80 73 68 68 69 69 73 83 91 89 82 76 78 84 85 85 96 126 175 200 208 212 215 219 223 224
271 284 350 340 352 10 346 335 5 19 61 83 31 30 91 119 124 136 159 144 134 140 139 138 136 121 110 106 107 115 122 120 115 106 99 94 87 80 75 69 64 64 63 62 68 80 93 93 86 80 74 69 69 72 78 118 163 175 187 201 207 211 217
300 301 14 360 8 11 350 11 50 28 23 42 23 37 87 108 130 144 142 122 112 119 119 114 117 115 109 107 111 117 118 113 106 99 95 93 88 81 76 73 68 66 63 59 59 64 76 89 95 89 78 71 70 66 59 68 105 128 143 156 164 181 201
335 339 5 356 349 341 337 360 38 43 19 1 9 67 100 114 128 134 124 111 101 103 106 103 106 108 103 98 95 97 102 103 99 95 92 92 91 86 79 75 72 70 68 63 56 54 58 71 84 87 82 78 77 72 63 61 77 101 122 135 141 152 171
331 318 311 269 270 297 319 333 350 31 35 339 1 63 89 113 127 125 116 115 127 131 119 112 107 104 97 86 81 85 95 99 97 93 88 86 89 90 86 79 75 72 71 68 62 57 55 58 61 65 73 78 79 77 71 63 67 88 101 113 128 134 139
278 290 286 258 234 286 293 304 320 306 292 32 355 350 88 100 124 133 130 136 145 141 132 126 120 111 105 100 98 99 102 103 102 102 100 94 91 91 88 82 78 76 75 73 67 59 56 59 59 54 54 62 71 77 73 62 58 73 83 82 94 120 142
278 288 288 282 134 248 247 55 9 300 238 153 236 285 93 97 111 125 129 138 137 134 137 139 136 129 124 123 119 112 112 116 115 115 118 119 112 103 95 87 80 75 77 78 71 58 49 55 63 58 48 52 63 72 72 61 55 60 69 72 79 100 131
315 312 331 104 192 251 224 54 18 341 270 166 177 342 62 103 118 118 123 137 137 136 143 142 134 131 130 133 133 124 116 120 124 121 120 123 123 120 110 97 87 75 71 72 68 56 43 42 55 56 44 38 49 61 63 57 52 53 54 54 56 63 80
272 327 15 138 198 266 53 49 15 1 14 89 110 43 34 82 113 119 126 135 127 124 132 136 135 137 137 134 138 139 126 117 124 125 121 118 117 119 114 106 98 85 75 70 62 50 35 36 49 54 40 22 25 43 50 47 44 46 45 43 41 40 42
243 309 333 174 136 70 51 60 46 23 34 60 100 88 44 64 96 115 126 130 121 113 120 129 136 141 139 130 140 152 144 122 120 118 116 115 110 107 109 108 102 91 79 77 72 51 28 38 51 55 42 13 5 22 37 36 31 33 40 42 41 40 38
307 355 329 346 61 269 270 56 79 65 64 68 80 92 77 76 104 115 118 122 124 114 113 124 129 129 127 121 154 159 150 131 123 120 118 118 109 103 107 103 91 72 58 74 79 55 28 46 54 50 39 2 352 9 31 35 25 16 21 30 35 39 39
305 351 189 269 73 267 277 19 62 66 71 73 69 67 345 238 133 137 141 119 115 112 108 113 114 114 122 88 124 140 140 130 124 119 114 114 106 97 98 84 62 43 42 71 89 61 38 50 52 47 44 15 357 7 25 36 26 10 3 3 11 24 32
279 300 287 39 93 247 263 62 66 70 76 75 71 75 280 279 136 146 149 117 110 115 112 103 85 79 113 107 99 114 122 119 115 109 104 108 107 95 78 45 31 37 44 67 94 61 48 51 45 42 47 29 18 18 23 27 20 10 360 348 347 356 6
267 270 273 92 96 260 354 68 69 77 81 72 89 155 255 349 75 113 116 105 105 111 108 103 97 98 106 106 101 105 108 107 106 105 103 106 104 89 63 31 17 15 352 336 5 33 41 37 3 338 324 349 9 18 14 6 3 6 357 340 341 345 344
265 245 247 130 81 325 78 78 65 60 79 124 153 126 52 52 68 88 101 103 104 104 104 106 110 109 107 106 103 101 102 104 108 116 122 119 104 84 75 59 30 322 300 295 294 312 323 310 294 280 279 296 323 340 349 354 358 5 354 333 337 346 341
226 236 270 139 191 313 100 97 54 26 74 152 119 81 70 67 74 88 101 106 105 105 106 107 107 106 105 106 107 105 107 109 114 125 134 135 125 105 98 107 194 238 287 290 283 289 300 303 300 293 291 297 306 318 338 351 352 357 343 327 343 356 340
152 182 236 232 218 72 85 102 99 85 105 113 101 88 80 74 76 88 99 101 104 111 114 111 110 108 104 110 120 120 118 121 126 125 121 124 133 134 137 177 243 269 286 304 309 296 293 296 299 301 301 303 302 294 293 293 290 288 284 304 341 353 308
116 145 175 234 110 91 97 109 115 110 104 106 110 104 93 89 96 104 107 102 101 110 116 115 115 114 116 125 130 127 127 132 134 126 117 123 135 140 168 242 277 295 307 327 333 319 306 301 300 300 301 301 299 289 281 275 272 274 279 290 311 304 286
54 120 145 157 136 116 116 119 121 118 113 113 115 111 111 123 123 121 131 136 128 122 126 127 125 126 132 136 139 143 143 133 122 128 146 158 158 157 219 271 295 313 328 337 332 323 322 319 315 313 308 305 305 303 298 291 280 271 270 274 269 266 281
54 90 149 146 142 134 126 124 131 138 135 130 124 114 120 133 135 127 135 147 152 151 151 149 143 141 144 146 154 166 166 151 136 161 185 219 258 279 300 316 325 327 322 323 325 322 326 332 336 333 328 325 323 322 319 315 306 291 277 271 270 271 279
127 164 116 104 124 139 136 136 145 152 149 142 134 127 125 126 131 135 135 139 150 162 172 175 169 167 175 176 166 161 167 174 178 181 206 251 271 299 328 344 352 333 312 307 315 324 332 337 339 340 341 340 333 328 326 324 322 315 298 277 271 274 269
208 179 38 55 113 141 123 119 140 151 155 156 157 166 169 155 145 155 160 161 166 174 184 190 187 179 180 182 168 152 153 164 178 193 219 249 278 310 325 313 292 298 307 316 328 337 340 331 322 316 317 322 326 329 328 323 322 324 316 295 277 274 267
224 208 10 14 111 129 62 52 86 122 142 157 167 180 189 191 190 189 183 179 183 188 191 194 191 187 194 204 197 184 179 171 172 192 216 256 289 292 282 282 291 309 331 339 336 326 311 304 305 304 297 290 291 307 317 316 316 320 320 312 296 281 272
86 71 37 26 78 88 48 40 62 85 94 109 134 166 187 197 200 199 191 185 187 190 187 184 181 182 190 194 188 189 205 212 214 235 268 284 280 276 286 303 322 345 352 331 306 298 296 299 304 308 309 310 310 309 311 313 312 311 313 313 306 290 273
65 58 32 19 43 50 31 36 42 3 342 286 284 187 194 201 205 211 214 206 201 199 195 191 188 186 187 191 196 204 212 220 236 259 269 264 268 283 306 328 348 342 309 296 295 299 303 309 317 321 323 337 346 336 322 315 310 304 301 302 300 293 282
170 203 315 326 305 293 297 292 283 282 273 268 268 265 261 235 214 218 223 215 207 202 197 194 195 195 198 205 207 203 205 221 240 242 236 254 281 304 319 333 328 296 291 297 302 305 310 320 335 343 338 332 330 321 307 303 303 299 297 298 296 292 284